Torna al catalogo

NIMBUS 2 DEB

AttivoLEO
NORAD 28203·DEBRIS·🇺🇸 United States

Lanciato May 15, 1966 da Vandenberg Space Force Base

Loading…

Prossimi Passaggi (prossime 24 ore)

TLE

AggiornatoSource: Space-Track

Epoca: Sep 14, 2026, 15:41 UTC

1 28203U 66040R   26257.65357071  .00001511  00000-0  23860-2 0  9996
2 28203 100.3269 150.4383 0050710  61.3276 327.7182 13.51191672196934

Traccia NIMBUS 2 DEB in tempo reale con AllMySat

Download on the App Store